Regional Weather Roundup
Issued by NWS Upton, NY

Current Version | Previous Version | Text Only | Print | Product List | Glossary Off
Versions: 1 2 3 4 5 6 7 8 9 10 11 12 13 14 15 16 17 18 19 20 21 22 23 24 25 26 27 28 29 30 31 32 33 34 35 36 37 38 39 40 41 42 43 44 45 46 47 48 49 50
000 ASUS41 KOKX 300404 RWROKX REGIONAL WEATHER ROUNDUP NATIONAL WEATHER SERVICE NEW YORK NY 1200 AM EDT SAT JUL 30 2016 NOTE: "FAIR" INDICATES FEW OR NO CLOUDS BELOW 12,000 FEET WITH NO SIGNIFICANT WEATHER AND/OR OBSTRUCTIONS TO VISIBILITY. NYZ071-072-176-178-NJZ106-104-300500- NEW YORK CITY METRO AREA CITY SKY/WX TMP DP RH WIND PRES REMARKS Central Park CLEAR 77 69 76 VRB3 29.95R LaGuardia APRT MOCLDY 79 69 71 S8 29.92S Kennedy INTL PTCLDY 75 70 84 SW8 29.94R Newark/Liberty MOCLDY 77 71 82 S6 29.92R Bronx Bot Gard N/A 73 66 78 CALM 29.94R Wall St Helipt PTCLDY 77 70 78 W3 29.94S Teterboro CLEAR 77 69 76 CALM 29.92R $$ NYZ177-179-078>081-300500- LONG ISLAND NEW YORK CITY SKY/WX TMP DP RH WIND PRES REMARKS Farmingdale CLEAR 74 69 85 SW3 29.93R MacArthur/ISP PTCLDY 73 70 90 SW6 29.93R Shirley CLEAR 72 69 90 CALM 29.94R Riverhead NOT AVBL Westhampton PTCLDY 70 67 90 CALM 29.95R Southhampton N/A 72 68 88 CALM 29.89S Bridgehampton N/A 68 64 88 CALM 29.92R East Hampton FAIR 67 65 94 CALM 29.92S Montauk N/A 70 68 93 CALM 29.93S $$ NYZ052-065-067-300500- HUDSON VALLEY CITY SKY/WX TMP DP RH WIND PRES REMARKS White Plains CLEAR 73 68 84 CALM 29.94R Newburgh CLEAR 72 70 94 CALM 29.96R Montgomery CLEAR 70 69 97 CALM 29.94R Poughkeepsie CLEAR 73 69 87 CALM 29.92R Albany PTCLDY 72 57 59 N7 29.97R $$ NJZ001-105-106-008-010-013-015-019>022-104-300500- NEW JERSEY CITY SKY/WX TMP DP RH WIND PRES REMARKS Newark/Liberty MOCLDY 77 71 82 S6 29.92R Teterboro CLEAR 77 69 76 CALM 29.92R Caldwell CLEAR 73 69 87 S3 29.94R Morristown CLOUDY 68 64 88 CALM 29.94S Somerville CLOUDY 73 70 90 CALM 29.92S Linden FAIR 77 69 75 CALM 29.95R Sussex MOCLDY 69 69 100 CALM 29.96R FOG Abdover N/A 67 66 97 CALM 29.96S Trenton CLOUDY 75 69 81 CALM 29.93S Millville CLEAR 71 69 93 CALM 29.96R Atlantic City CLEAR 71 67 87 CALM 29.96R Wrightstown MOCLDY 73 70 92 SW5 29.93R Toms River PTCLDY 70 69 97 CALM 29.96R Belmar CLOUDY 72 70 93 W6 29.96R $$ PAZ047>061-062-071-300500- EASTERN PENNSYLVANIA CITY SKY/WX TMP DP RH WIND PRES REMARKS Philadelphia MOCLDY 78 72 81 CALM 29.96R Allentown CLEAR 74 70 87 CALM 29.95R Scranton CLOUDY 73 65 75 E6 29.97R $$ CTZ002-004>006-009-010-012-RIZ004-006-007-MAZ004-011-015-300500- SOUTHERN NEW ENGLAND IN CT CITY SKY/WX TMP DP RH WIND PRES REMARKS Bradley INTL PTCLDY 72 67 84 N3 29.94R Hartford CLEAR 77 69 76 S3 29.92R Danbury CLEAR 70 67 90 SW3 29.96R Wtrbury/Oxford N/A 70 66 88 CALM 29.97R Bridgeport CLEAR 75 70 84 CALM 29.93R Meriden PTCLDY 73 69 87 CALM 29.93R New Haven CLEAR 74 70 87 VRB3 29.93R Chester FAIR 70 70 100 CALM 29.94S Groton PTCLDY 72 67 84 N3 29.91S Wilimantic CLEAR 73 70 90 CALM 29.94R IN RI CITY SKY/WX TMP DP RH WIND PRES REMARKS Providence PTCLDY 73 65 75 CALM 29.92R Block Island CLEAR 69 67 93 NW5 29.93 Westerly CLEAR 71 65 81 CALM 29.93S IN MA CITY SKY/WX TMP DP RH WIND PRES REMARKS Boston PTCLDY 75 67 76 N5 29.91R Worchester CLEAR 68 64 87 CALM 29.96S Westfield CLEAR 70 67 90 N3 29.94R Provincetown FOG 68 67 96 N7 29.91R VSB 1/4 Nantucket MOCLDY 66 63 90 CALM 29.89R $$ ANZ330-335-338-340-345-350-353-355-300500- COASTAL MARINE OBSERVATIONS STATION/POSITION TIME SKY/WX TEMP WIND PRES VSBY WAVE AIR SEA DIR/SP/G HT/PER (UTC) (F) (DEG/KT/KT) (MB) (MI) (FT/S) NY HARB ENTRANCE 0250 75 73 210/ 6/ 6 1013.1 3/ 5 20S FIRE ISLAND 0250 73 74 230/ 8/ 8 1012.9 3/ 6 GREAT SOUTH BAY 0300 76 81 230/ 6/ 8 N/A 23 SSW MONTAUK P 0250 70 70 CALM / 2 1013.2 2/ 5 15 E BARNEGAT LI 0300 77 N/A 3/ 6 HUDSON CANYON 0250 75 78 1012.5 4/ 6 KINGS POINT 0300 72 1013.1 EXECUTION ROCKS 0300 74 200/ 4/ 4 N/A CENTRAL LI SOUND 0315 75 75 240/ 6/ 6 N/A 1 EASTERN LI SOUND 0300 70 68 330/ 2/ 4 N/A ROBBINS REEF 0312 180/ 8/ 9 N/A $$ >>>>>>>>>>>>>>>>>>>>>>>>>>>> KEY <<<<<<<<<<<<<<<<<<<<<<<<<<< > < > SKY/WX - Sky Condition/Present Weather < > TMP - Temperature in Fahrenheit < > DP - Dew Point in Fahrenheit < > RH - Relative Humidity in Percent < > WIND - Direction (from) and Speed in MPH < > PRES - Mean Sea Level Pressure (inches of Hg) < > WCI - Wind Chill Index < > VSB - VISIBILITY IN MILES < > HX - HEAT INDEX < > TC - TEMPERATURE IN CELSIUS < > VRB - VARIABLE WIND DIRECTION < > < >>>>>>>>>>>>>>>>>>>>>>>>>>>> KEY <<<<<<<<<<<<<<<<<<<<<<<<<<<

USA.gov is the U.S. government's official web portal to all federal, state and local government web resources and services.